Location: Pian di Sc�
(43.6333°N, 11.5500°E)
Time: 16:14:29
(UTC+00:00)

CZ-4C R/B - Pass Details

Date: 07 August 2020
Orbit: 409 x 491 km, 97.7° (Epoch: 17 September)

Event Time Altitude Azimuth Distance (km) Brightness Sun altitude
Exits shadow 02:20:59 - 148° (SSE) 2,130 6.2 -17.1°
Reaches altitude 10° 02:22:31 10° 141° (SE) 1,498 5.5 -16.9°
Maximum altitude 02:25:30 37° 72° (ENE) 678 4.3 -16.5°
Drops below altitude 10° 02:28:34 10° 3° (N) 1,544 6.3 -16.1°
Sets 02:30:41 0° 355° (N) 2,432 7.2 -15.8°
